HOT BIRD 6
1 27499U 02038A   03013.80550721  .00000106  00000-0  10000-3 0   665
2 27499   0.0928  32.8693 0008090 290.3889  92.5421  1.00271722  1476
RUBIN 2
1 27605U 02058A   03014.30504738  .00000929  00000-0  17010-3 0   299
2 27605  64.5534 304.3184 0030897 125.8465 234.5514 14.71370950  3622
